Location: Bo?a Wola
(50.4192°N, 19.7966°E)
Time: 04:41:29
(UTC+00:00)

CZ-4C R/B - Pass Details

Date: 16 September 2024
Orbit: 519 x 1471 km, 63.4° (Epoch: 09 October)

Event Time Altitude Azimuth Distance (km) Brightness Sun altitude
Exits shadow 01:05:34 43° 323° (NW) 1,097 2.8 -28.1°
Maximum altitude 01:05:44 43° 329° (NNW) 1,100 2.8 -28.1°
Drops below altitude 10° 01:11:35 10° 40° (NE) 2,691 5.8 -27.5°
Sets 01:14:39 0° 47° (NE) 3,813 6.9 -27.1°
